Flag for U.S.A. Weather past 2 weeks in Clarksville, Tennessee, U.S.A.

Now
88 °F

Sunny.


Feels Like: 96 °F
Forecast: 71 / 83 °F
Wind: 10 mph from West

Location: Outlaw Field

Current Time: Sep 2, 2014 at 4:14:20 PM

Latest Report: Sep 2, 2014 at 3:52 PM


Visibility: 10 mi

Pressure: 29.90 "Hg

Humidity: 61%

Dew point: 73 °F

Location of ClarksvilleLocation

Historic Weather in Clarksville — Graph

°F

Clarksville temperature yesterday

Maximum temperature yesterday: 86 °F (at 12:52 PM)
Minimum temperature yesterday: 73 °F (at 1:52 AM)
Average temperature yesterday: 79 °F

Past Weeks' High & Low Weather Summary

 TemperatureHumidityPressure
High95 °F (Aug 23, 2:52 PM)97% (Aug 19, 4:00 AM)30.12 "Hg (Aug 19, 4:00 AM)
Low69 °F (Aug 21, 4:52 AM)39% (Aug 29, 3:52 PM)29.80 "Hg (Aug 18, 4:52 PM)
Average79 °F79%29.99 "Hg
* Reported Aug 18 2:52 PM — Sep 2 2:52 PM, Clarksville, Weather by CustomWeather, © 2014

Note: Actual official high and low records may vary slightly from our data, if they occured in-between our weather recording intervals... More about our weather records

Advertising

Clarksville weather history for previous 24 hours

 ConditionsComfort  
Time TempWeatherWind HumidityBarometerVisibility
2:52 PM
Sep 2
87 °FPassing clouds.10 mph67%29.93 "Hg10 mi
1:52 PM86 °FSunny.7 mph67%29.96 "Hg10 mi
12:52 PM85 °FPassing clouds.8 mph70%29.96 "Hg10 mi
11:52 AM84 °FOvercast.7 mph72%29.97 "Hg10 mi
10:52 AM84 °FScattered clouds.12 mph72%29.99 "Hg10 mi
10:03 AM82 °FScattered clouds.9 mph77%30.02 "Hg10 mi
9:52 AM81 °FPartly sunny.9 mph77%30.00 "Hg10 mi
8:52 AM80 °FPassing clouds.9 mph79%30.00 "Hg10 mi
7:52 AM76 °FPassing clouds.7 mph85%29.99 "Hg10 mi
6:52 AM74 °FSunny.10 mph88%29.98 "Hg10 mi
5:52 AM74 °FClear.7 mph88%29.99 "Hg10 mi
4:52 AM75 °FClear.6 mph82%30.00 "Hg10 mi
3:52 AM76 °FClear.7 mph80%29.97 "Hg10 mi
2:52 AM76 °FClear.8 mph80%29.97 "Hg10 mi
1:52 AM74 °FClear.5 mph85%29.98 "Hg10 mi
12:52 AM75 °FClear.No wind85%29.98 "Hg10 mi
11:52 PM
Sep 1
75 °FClear.3 mph82%29.97 "Hg10 mi
10:52 PM77 °FClear.No wind79%29.98 "Hg10 mi
9:52 PM78 °FClear.5 mph76%29.98 "Hg10 mi
8:52 PM78 °FClear.3 mph76%29.98 "Hg10 mi
7:52 PM80 °FClear.3 mph74%29.96 "Hg10 mi
6:52 PM84 °FSunny.5 mph65%29.96 "Hg10 mi
5:52 PM86 °FSunny.9 mph61%29.93 "Hg10 mi
4:52 PM85 °FSunny.13 mph65%29.92 "Hg10 mi
Weather by CustomWeather, © 2014

See weather overviewHow to use our weather pages